GFSFLT1_925_thetae_162.txt.gz
Theta_e
343 342 345 344 341 341 342 344 344 345 346 345 346 346 347 347 347 346 345 345 346 348 347 348 347 347 348 349 349 349 349 350 350
341 342 344 344 342 342 341 341 342 345 345 345 345 347 347 349 348 347 346 345 346 347 348 348 347 347 348 348 347 348 349 349 348
345 342 343 343 343 343 341 341 341 343 343 343 346 346 347 346 347 346 347 347 346 346 347 347 346 345 347 348 347 347 348 350 348
340 344 342 342 343 343 344 342 342 342 343 344 346 346 346 346 346 348 348 347 346 346 347 346 345 345 345 346 346 348 347 349 350
344 345 341 341 343 343 344 344 344 343 344 345 344 344 345 346 346 348 348 347 347 347 346 346 345 345 346 347 346 347 347 347 348
344 344 340 341 344 344 343 344 346 346 346 346 346 345 345 346 347 348 348 347 347 346 346 346 346 346 347 347 347 346 347 346 346
343 346 345 344 344 343 343 344 347 347 346 346 347 349 349 348 348 348 347 346 348 347 346 347 347 346 347 346 347 347 348 348 349
345 348 346 346 347 344 342 342 344 346 346 346 346 346 346 347 347 347 346 346 347 349 348 348 348 347 348 348 348 348 347 349 349
343 346 347 345 346 343 342 341 341 343 345 344 344 343 344 344 345 346 345 345 346 347 348 348 348 348 348 349 348 348 348 347 346
340 342 343 344 345 343 343 343 343 342 342 341 341 342 342 342 343 343 343 344 343 344 345 346 347 347 346 345 344 345 345 344 344
341 341 341 342 342 342 343 343 342 341 341 340 337 339 339 339 344 343 341 344 343 343 343 343 343 343 342 342 343 343 343 342 343
339 341 339 340 341 340 340 342 341 340 340 340 338 339 341 341 342 342 343 339 343 342 342 341 341 341 342 342 342 342 342 338 339
341 338 337 337 338 337 339 341 341 340 338 338 341 340 342 342 342 342 342 342 341 342 340 339 337 336 337 339 339 340 340 339 337
337 336 334 334 334 335 338 339 341 340 339 338 338 338 338 340 341 342 341 340 340 340 338 335 332 331 329 330 332 334 337 336 337
335 335 334 334 334 334 337 339 338 338 337 338 338 338 338 337 338 340 341 339 334 333 332 329 326 325 325 326 327 329 332 335 336
335 333 333 333 333 333 334 335 337 336 335 337 336 336 335 334 334 334 333 333 330 328 327 325 323 322 323 324 325 327 329 330 331
334 333 332 333 333 333 333 334 336 336 335 334 334 333 333 332 333 331 331 331 329 328 326 325 324 322 322 321 323 324 325 325 325
333 333 333 333 332 332 332 334 334 334 334 333 332 331 330 328 328 328 327 327 327 328 328 328 327 325 321 322 321 320 320 320 319
331 331 332 332 332 332 332 332 332 332 332 332 330 328 325 324 323 321 320 316 313 313 315 319 326 327 319 322 320 319 319 318 317
330 330 331 331 331 331 331 330 330 330 330 329 329 326 322 318 317 316 315 314 314 312 312 314 321 318 320 322 321 321 321 320 319

GFSFLT1_925_thetae_165.txt.gz
Theta_e
348 347 347 349 345 345 347 347 348 347 348 349 348 348 347 347 347 348 349 349 347 348 351 350 346 346 347 348 348 349 348 347 353
349 348 347 347 347 343 346 346 348 348 348 350 349 349 350 349 347 346 348 346 345 346 347 350 347 347 347 347 347 346 349 348 347
345 347 346 346 346 345 343 344 347 347 349 350 349 349 349 350 350 349 348 347 346 346 346 347 347 347 345 347 348 348 347 346 347
341 343 347 346 346 346 344 343 344 346 348 349 349 349 349 350 351 351 348 349 347 346 346 346 346 345 345 345 347 350 346 346 346
349 349 349 349 345 345 346 346 344 346 347 348 349 348 350 350 351 350 350 350 349 346 346 347 347 346 345 346 348 348 346 347 352
349 350 347 346 346 346 346 347 347 345 346 346 348 348 344 350 350 349 350 350 348 348 346 346 346 346 347 349 348 349 349 348 351
348 350 350 348 347 348 347 347 348 348 346 346 350 348 347 349 350 350 350 352 351 348 346 347 346 346 345 348 348 349 352 350 346
348 350 350 349 349 349 347 347 348 349 348 349 348 350 349 349 347 349 350 351 350 350 350 348 346 345 346 346 347 349 347 347 347
349 349 347 346 346 346 347 346 347 346 345 348 346 346 346 346 346 345 346 348 349 349 348 350 348 348 352 349 347 347 347 347 346
346 347 348 347 345 344 346 345 343 343 346 345 347 345 345 343 344 344 345 345 345 346 349 348 347 347 346 345 346 346 346 345 346
345 346 346 346 344 344 346 345 344 342 342 342 342 342 342 343 342 342 346 344 343 343 343 343 344 344 343 343 343 343 342 343 343
342 343 340 342 342 342 343 345 345 342 341 340 339 339 339 338 342 341 342 343 342 342 342 340 340 339 339 340 341 342 340 339 340
339 338 338 339 337 338 340 340 340 339 339 339 339 340 341 339 341 342 341 341 342 341 341 340 338 336 337 338 338 340 340 340 339
336 336 335 334 335 337 338 339 337 337 338 337 337 338 340 341 341 341 342 340 340 339 337 335 334 334 332 333 333 334 337 336 336
336 336 335 334 335 336 337 339 338 338 335 336 336 337 338 337 338 337 338 339 333 331 331 328 326 326 328 328 329 331 333 335 336
334 334 333 335 334 333 335 336 337 336 335 335 335 335 335 335 335 333 333 332 330 328 328 326 325 324 324 323 325 327 330 332 332
335 335 335 335 336 334 333 333 334 335 335 335 334 333 332 331 332 331 329 329 329 328 326 325 324 325 325 326 325 321 322 324 325
335 335 334 334 334 333 333 333 333 333 333 333 331 329 329 326 327 329 328 328 326 326 327 326 325 323 324 325 323 319 319 319 320
335 334 334 334 334 335 333 331 332 331 331 331 329 325 322 321 321 319 319 320 320 326 328 327 325 319 322 321 318 317 317 317 317
333 334 334 334 334 333 333 332 330 330 330 329 327 324 321 319 318 318 318 317 317 317 321 324 322 320 321 320 320 320 320 317 314

GFSFLT1_925_thetae_168.txt.gz
Theta_e
351 350 350 349 348 347 347 347 347 347 348 351 350 350 350 352 353 351 348 347 350 348 348 349 352 352 353 354 354 354 352 351 350
351 351 350 349 348 347 347 348 348 349 349 352 351 351 352 353 353 353 349 350 352 350 351 350 351 352 353 355 353 354 351 350 350
347 349 350 350 349 348 346 346 348 350 350 352 352 351 352 353 353 353 353 351 352 351 350 351 352 353 354 350 350 352 350 351 350
343 345 346 348 348 348 348 346 348 349 350 351 353 352 351 351 352 352 353 351 352 350 349 349 349 351 354 351 350 349 351 351 350
348 348 349 350 349 348 348 348 348 348 350 351 351 351 352 351 352 352 352 352 351 352 349 349 351 353 353 353 353 353 351 350 349
349 349 349 350 352 351 349 348 349 348 349 350 350 351 352 351 353 353 352 352 353 351 352 352 352 352 350 349 351 351 350 351 352
349 349 350 352 352 352 350 349 349 350 350 351 352 351 352 351 352 353 352 352 354 353 353 353 352 353 350 349 349 351 351 351 351
348 350 352 353 352 351 351 350 350 351 351 349 350 349 351 351 352 353 353 353 354 352 353 353 352 353 351 350 351 351 353 351 352
348 352 352 351 351 351 351 350 351 351 352 352 350 350 351 354 355 355 354 355 354 355 354 352 352 353 351 351 350 349 346 347 351
348 349 350 350 349 347 346 350 349 349 350 351 350 348 351 352 353 351 352 353 353 354 352 350 351 352 352 352 353 345 347 347 349
347 348 349 350 348 348 349 347 347 347 349 348 350 349 349 349 349 347 345 350 351 350 351 352 352 353 352 350 345 344 344 344 350
346 347 345 345 345 345 346 347 347 346 343 342 345 347 347 347 347 346 347 346 346 345 345 344 345 345 345 344 337 340 341 343 347
342 343 344 343 342 342 343 342 344 344 343 343 341 341 343 342 342 341 343 343 343 342 341 340 339 338 337 336 336 340 341 341 343
339 340 340 339 339 341 340 337 338 338 336 336 338 340 341 340 340 342 342 342 341 340 339 338 335 333 331 332 334 336 337 338 339
339 339 338 339 337 338 340 339 334 336 336 335 337 334 335 338 341 341 340 340 338 335 335 332 328 328 327 328 330 332 335 335 336
340 337 337 337 336 336 339 340 337 335 334 334 335 334 334 334 335 334 338 335 332 331 329 327 325 326 325 325 325 328 331 332 331
336 337 336 335 335 336 335 337 338 336 335 333 332 330 329 330 331 330 329 329 328 328 327 324 325 327 328 327 325 324 325 325 326
337 336 335 336 334 334 333 334 334 333 332 333 331 329 329 327 328 326 327 326 328 329 326 325 326 327 328 327 323 323 324 328 328
336 337 336 336 336 336 334 334 333 332 332 330 331 330 330 328 326 326 327 326 323 326 326 324 322 324 324 321 318 318 319 320 322
336 336 336 336 336 336 335 335 335 332 331 330 330 329 329 328 329 328 326 325 325 323 324 321 320 321 319 319 319 317 314 314 315

GFSFLT1_925_thetae_171.txt.gz
Theta_e
349 350 350 348 347 346 346 347 347 346 349 350 350 350 350 352 353 351 350 350 351 346 349 345 353 354 355 354 354 355 355 353 352
349 350 351 350 348 347 347 346 347 348 349 352 352 351 352 353 355 353 349 350 352 352 350 349 354 352 352 353 354 355 355 352 352
346 349 350 350 350 349 348 348 347 348 349 352 354 352 353 353 353 354 354 351 354 351 352 353 353 352 353 353 354 353 355 352 352
342 343 344 347 349 350 349 348 348 349 350 351 354 353 352 354 354 353 353 351 351 351 352 352 353 353 352 353 353 353 354 353 354
343 346 345 347 348 348 350 350 348 350 352 352 352 352 352 353 354 353 352 352 351 353 352 353 352 353 353 354 352 353 354 354 353
347 347 346 347 349 352 350 351 352 352 353 353 353 352 352 352 353 354 353 352 352 352 353 352 352 353 354 354 352 352 353 353 353
346 346 346 349 351 352 353 351 353 353 353 353 353 352 352 354 353 354 354 354 354 353 353 353 353 353 354 353 352 352 352 353 353
345 346 347 350 352 352 353 354 353 354 353 352 354 355 355 354 354 355 355 355 355 355 354 353 353 353 354 353 352 351 353 353 353
343 345 349 350 351 353 353 352 353 353 353 352 351 356 355 356 354 356 355 355 355 355 353 354 353 354 352 353 350 349 350 349 351
343 346 348 349 352 351 351 351 352 352 354 354 353 351 353 354 354 355 356 355 356 356 356 355 355 353 354 353 352 349 350 346 348
345 345 350 349 350 349 350 350 351 352 352 353 351 352 351 353 351 351 351 355 354 354 354 353 353 354 354 353 351 350 346 346 349
345 349 349 347 345 344 346 349 349 349 350 350 350 350 351 350 352 351 352 352 351 352 352 352 353 353 353 351 346 345 343 344 350
347 345 344 344 341 342 344 344 348 346 346 346 346 345 346 347 349 350 349 350 349 345 345 344 344 345 345 341 341 340 340 344 348
344 344 342 341 340 340 342 339 338 337 337 337 340 341 342 343 344 344 346 344 342 342 340 338 337 337 336 336 337 339 340 340 342
343 343 340 341 342 341 339 339 337 337 337 335 334 335 336 340 340 342 343 341 339 337 336 333 329 327 327 329 331 335 336 337 338
342 340 340 339 340 341 340 337 338 336 337 335 333 333 333 331 336 337 333 331 331 329 329 326 326 326 325 325 326 329 333 334 333
340 339 339 338 336 337 341 340 339 334 334 333 333 331 332 331 334 332 331 330 328 328 327 327 327 327 326 325 325 326 327 328 329
338 336 336 335 335 335 336 337 339 336 334 333 330 330 331 331 329 329 329 328 328 326 325 326 328 330 330 328 324 324 325 326 326
335 336 336 336 336 336 336 338 338 337 334 334 333 331 330 330 328 327 326 325 325 324 323 324 326 327 326 324 323 322 323 326 328
338 338 337 337 337 337 336 335 337 337 334 333 334 333 332 332 333 333 332 331 328 323 320 321 322 320 319 319 318 320 321 323 322